Flag for U.S.A. Weather past 2 weeks in Vista, California, U.S.A.

Now
59 °F

Passing clouds.


Feels Like: 58 °F
Forecast: 55 / 64 °F
Wind: 6 mph from North

Location: McClellan-Palomar Airport

Current Time: May 22, 2015 at 6:41:06 AM

Latest Report: May 22, 2015 at 5:53 AM


Visibility: 10 mi

Pressure: 29.98 "Hg

Humidity: 75%

Dew point: 51 °F

Location of VistaLocation

Historic Weather in Vista — Graph

°F

Vista temperature yesterday

Maximum temperature yesterday: 64 °F (at 1:53 PM)
Minimum temperature yesterday: 59 °F (at 10:53 AM)
Average temperature yesterday: 61 °F

Past Weeks' High & Low Weather Summary

 TemperatureHumidityPressure
High66 °F (May 10, 2:53 PM)93% (May 15, 12:53 AM)30.08 "Hg (May 15, 12:53 AM)
Low52 °F (May 8, 5:53 AM)48% (May 7, 8:53 PM)29.80 "Hg (May 15, 3:53 PM)
Average60 °F71%29.95 "Hg
* Reported May 7 4:53 AM — May 22 4:53 AM, Vista, Weather by CustomWeather, © 2015

Note: Actual official high and low records may vary slightly from our data, if they occured in-between our weather recording intervals... More about our weather records

Advertising

Vista weather history for previous 24 hours

 ConditionsComfort  
Time TempWeatherWind HumidityBarometerVisibility
4:53 AM
Fri, May 22
59 °FPartly cloudy.9 mph75%29.97 "Hg10 mi
3:53 AM59 °FPassing clouds.5 mph78%29.97 "Hg10 mi
2:53 AM59 °FPassing clouds.5 mph81%29.97 "Hg10 mi
1:53 AM59 °FLight rain. Mostly cloudy.10 mph84%29.98 "Hg7 mi
12:53 AM61 °FMostly cloudy.5 mph70%29.99 "Hg10 mi
11:53 PM
Thu, May 21
60 °FMostly cloudy.5 mph72%29.99 "Hg10 mi
10:53 PM61 °FMostly cloudy.8 mph70%29.99 "Hg10 mi
10:02 PM61 °FOvercast.7 mph70%30.00 "Hg10 mi
9:53 PM61 °FOvercast.13 mph72%29.99 "Hg10 mi
8:53 PM61 °FPassing clouds.8 mph72%29.98 "Hg10 mi
7:53 PM61 °FLight rain. Mostly cloudy.9 mph81%29.96 "Hg10 mi
6:53 PM62 °FPassing clouds.10 mph65%29.95 "Hg10 mi
5:53 PM63 °FBroken clouds.10 mph63%29.94 "Hg10 mi
4:53 PM64 °FPartly sunny.10 mph58%29.94 "Hg10 mi
3:53 PM63 °FScattered clouds.10 mph63%29.95 "Hg10 mi
2:53 PM64 °FScattered clouds.10 mph58%29.96 "Hg10 mi
1:53 PM64 °FMostly cloudy.9 mph56%29.97 "Hg10 mi
12:53 PM63 °FMore clouds than sun.9 mph60%29.98 "Hg10 mi
11:53 AM61 °FOvercast.9 mph58%29.98 "Hg10 mi
10:53 AM59 °FOvercast.9 mph72%29.97 "Hg10 mi
9:53 AM61 °FOvercast.12 mph67%29.96 "Hg10 mi
8:53 AM61 °FOvercast.6 mph67%29.96 "Hg10 mi
7:53 AM61 °FOvercast.7 mph65%29.96 "Hg10 mi
6:53 AM60 °FOvercast.7 mph69%29.95 "Hg10 mi
Weather by CustomWeather, © 2015

See weather overviewHow to use our weather pages